Salt Lake City, UT

7:47 AM MDT on June 22, 2018 (GMT -0600)
Salt Lake City International

Weather History for KSLC - December, 2017

Change the Weather History Date:

Thursday, December 7, 2017

  Actual Average Record
Temperature  
Mean Temperature 31 °F 32 °F  
Max Temperature 38 °F 39 °F 60 °F (1939)
Min Temperature 23 °F 24 °F 1 °F (1951)
Degree Days  
Heating Degree Days 34 34  
Month to date heating degree days 199 229  
Since 1 July heating degree days 1221 1447  
Cooling Degree Days 0 0  
Month to date cooling degree days 0 0  
Year to date cooling degree days 1758 1160  
Moisture  
Dew Point 19 °F    
Average Humidity 61    
Maximum Humidity 81    
Minimum Humidity 40    
Precipitation  
Precipitation 0.00 in 0.04 in 1.10 in (2007)
Month to date precipitation 0.10 0.33  
Year to date precipitation 15.32 15.02  
Snow  
Snow 0.00 in 0.40 in 5.50 in (1922)
Month to date snowfall 0.9 2.8  
Since 1 July snowfall 0.9 11.8  
Snow Depth 0.00 in    
Sea Level Pressure  
Sea Level Pressure 30.70 in    
Wind  
Wind Speed 5 mph (ESE)    
Max Wind Speed 12 mph    
Max Gust Speed 13 mph    
Visibility 10 miles    
Events      
T = Trace of Precipitation, MM = Missing Value Source: NWS Daily Summary

Daily Weather History Graph

Daily Weather History Graph

Search for Another Location

Airport or City:

Astronomy

Dec. 07, 2017 Rise Set
Actual Time 7:38 AM MST 5:00 PM MST
Civil Twilight 7:08 AM MST 5:30 PM MST
Nautical Twilight 6:33 AM MST 6:05 PM MST
Astronomical Twilight 6:00 AM MST 6:38 PM MST
Moon 9:52 PM MST (12/7) 11:20 AM MST (12/7)
Length of Visible Light 10h 22m
Length of Day
9h 21m
Waning Gibbous, 77% of the Moon is Illuminated
Dec 7
Waning Gibbous
Dec 10
Last Quarter
Dec 17
New
Dec 26
First Quarter
Jan 1
Full

Hourly Weather History & Observations

Time (MST) Temp. Windchill Dew Point Humidity Pressure Visibility Wind Dir Wind Speed Gust Speed Precip Events Conditions
12:54 AM 26.1 °F - 21.0 °F 81% 30.68 in 10.0 mi Calm Calm - N/A   Clear
1:54 AM 25.0 °F 18.1 °F 18.0 °F 75% 30.69 in 10.0 mi SSE 5.8 mph - N/A   Clear
2:54 AM 23.0 °F 15.8 °F 18.0 °F 81% 30.70 in 10.0 mi SE 5.8 mph - N/A   Clear
3:54 AM 25.0 °F 17.1 °F 18.0 °F 75% 30.69 in 10.0 mi SE 6.9 mph - N/A   Partly Cloudy
4:54 AM 24.1 °F 16.0 °F 17.1 °F 75% 30.70 in 10.0 mi SE 6.9 mph - N/A   Partly Cloudy
5:54 AM 23.0 °F 15.8 °F 15.1 °F 72% 30.71 in 10.0 mi ESE 5.8 mph - N/A   Partly Cloudy
6:54 AM 24.1 °F 16.0 °F 14.0 °F 65% 30.72 in 10.0 mi SE 6.9 mph - N/A   Partly Cloudy
7:54 AM 24.1 °F 17.0 °F 15.1 °F 69% 30.73 in 10.0 mi ESE 5.8 mph - N/A   Scattered Clouds
8:54 AM 27.0 °F 20.5 °F 19.0 °F 72% 30.72 in 9.0 mi SE 5.8 mph - N/A   Scattered Clouds
9:54 AM 30.0 °F 25.2 °F 21.0 °F 69% 30.73 in 9.0 mi South 4.6 mph - N/A   Scattered Clouds
10:54 AM 34.0 °F - 21.9 °F 61% 30.72 in 10.0 mi Calm Calm - N/A   Scattered Clouds
11:54 AM 35.1 °F - 21.9 °F 59% 30.71 in 10.0 mi Calm Calm - N/A   Scattered Clouds
12:54 PM 37.0 °F 33.3 °F 19.0 °F 48% 30.68 in 10.0 mi NNW 4.6 mph - N/A   Mostly Cloudy
1:54 PM 37.9 °F 32.7 °F 18.0 °F 45% 30.67 in 10.0 mi NNW 6.9 mph - N/A   Mostly Cloudy
2:54 PM 37.0 °F 31.6 °F 16.0 °F 42% 30.67 in 10.0 mi NNW 6.9 mph - N/A   Mostly Cloudy
3:54 PM 37.0 °F 30.4 °F 16.0 °F 42% 30.66 in 10.0 mi NNW 9.2 mph - N/A   Mostly Cloudy
4:54 PM 33.1 °F 26.9 °F 19.9 °F 59% 30.68 in 10.0 mi North 6.9 mph - N/A   Mostly Cloudy
5:54 PM 30.0 °F 23.2 °F 21.0 °F 69% 30.70 in 10.0 mi North 6.9 mph - N/A   Mostly Cloudy
6:54 PM 28.9 °F 23.9 °F 19.9 °F 69% 30.70 in 10.0 mi NNE 4.6 mph - N/A   Mostly Cloudy
7:54 PM 30.9 °F - 19.9 °F 64% 30.70 in 10.0 mi Calm Calm - N/A   Mostly Cloudy
8:54 PM 28.9 °F 25.2 °F 19.9 °F 69% 30.72 in 10.0 mi WSW 3.5 mph - N/A   Mostly Cloudy
9:54 PM 27.0 °F 23.0 °F 19.9 °F 75% 30.71 in 10.0 mi SSW 3.5 mph - N/A   Scattered Clouds
10:54 PM 28.0 °F 22.8 °F 19.9 °F 72% 30.71 in 10.0 mi SE 4.6 mph - N/A   Partly Cloudy
11:54 PM 27.0 °F 20.5 °F 18.0 °F 69% 30.71 in 10.0 mi SE 5.8 mph - N/A   Partly Cloudy